Hof Plauen, Germany

2:09 PM CEST on June 22, 2017 (GMT +0200)
Hof-Plauen

Weather History for EDQM - March, 2014

Change the Weather History Date:

Monday, March 3, 2014

  Actual Average Record
Temperature  
Mean Temperature 40 °F -  
Max Temperature 50 °F 42 °F 50 °F (1998)
Min Temperature 31 °F 30 °F 5 °F (2005)
Degree Days  
Heating Degree Days 24    
Moisture  
Dew Point 30 °F    
Average Humidity 71    
Maximum Humidity 93    
Minimum Humidity 34    
Precipitation  
Precipitation 0.00 in - - ()
Sea Level Pressure  
Sea Level Pressure 29.39 in    
Wind  
Wind Speed 6 mph ()    
Max Wind Speed 17 mph    
Max Gust Speed 16 mph    
Visibility 4.3 miles    
Events Fog    
Averages and records for this station are not official NWS values.
T = Trace of Precipitation, MM = Missing Value Source: Averaged Metar Reports

Daily Weather History Graph

Daily Weather History Graph

Search for Another Location

Airport or City:

Trip Planner

Search our weather history database for the weather conditions in past years. The results will help you decide how hot, cold, wet, or windy it might be!

Date:

Astronomy

Mar. 03, 2014 Rise Set
Actual Time 6:52 AM CET 5:57 PM CET
Civil Twilight 6:19 AM CET 6:29 PM CET
Nautical Twilight 5:42 AM CET 7:07 PM CET
Astronomical Twilight 5:04 AM CET 7:45 PM CET
Moon 7:33 AM CET (3/3) 9:02 PM CET (3/3)
Length of Visible Light 12h 10m
Length of Day
11h 04m
Waxing Crescent, 6% of the Moon is Illuminated
Mar 3
Waxing Crescent
Mar 8
First Quarter
Mar 16
Full
Mar 24
Last Quarter
Mar 30
New

Hourly Weather History & Observations

Time (CET) Temp. Windchill Dew Point Humidity Pressure Visibility Wind Dir Wind Speed Gust Speed Precip Events Conditions
12:00 AM 32 °F - 30 °F 91% 29.59 in 2 mi SE 2.2 mph - -   Mist
12:20 AM 32.0 °F 27.5 °F 30.2 °F 93% 29.50 in 0.7 mi ESE 4.6 mph - N/A Fog Patches of Fog
12:50 AM 30.2 °F 25.4 °F 28.4 °F 93% 29.47 in 1.6 mi East 4.6 mph - N/A   Unknown
1:00 AM 33 °F - 32 °F 93% 29.54 in 1 mi SSE 6.7 mph - -   Mist
1:20 AM 33.8 °F - 32.0 °F 93% 29.47 in 1.6 mi Variable 1.2 mph - N/A   Mist
1:50 AM 33.8 °F 30.8 °F 30.2 °F 87% 29.44 in - ESE 3.5 mph - N/A   Mist
2:00 AM 34 °F - 32 °F 89% 29.50 in 2 mi SE 6.7 mph - -   Mist
2:20 AM 33.8 °F 30.8 °F 32.0 °F 93% 29.44 in 1.4 mi NNE 3.5 mph - N/A   Mist
2:50 AM 33.8 °F - 30.2 °F 87% 29.42 in 0.9 mi Variable 1.2 mph - N/A   Mist
3:00 AM 36 °F - 33 °F 86% 29.46 in 2 mi ENE 4.5 mph - -   Mist
3:20 AM 32.0 °F 28.7 °F 30.2 °F 93% 29.42 in 1.1 mi Variable 3.5 mph - N/A   Mist
3:50 AM 33.8 °F 27.0 °F 32.0 °F 93% 29.39 in 1.7 mi South 8.1 mph - N/A   Mist
4:20 AM 33.8 °F 26.4 °F 32.0 °F 93% 29.39 in 1.4 mi SSE 9.2 mph - N/A   Mist
4:50 AM 33.8 °F 27.0 °F 30.2 °F 87% 29.39 in 1.7 mi SSE 8.1 mph - N/A   Scattered Clouds
5:00 AM 34 °F - 33 °F 92% 29.44 in 1 mi South 6.7 mph - -   Mist
5:20 AM 33.8 °F 26.4 °F 32.0 °F 93% 29.39 in 1.4 mi SSE 9.2 mph - N/A   Mist
5:50 AM 33.8 °F 27.7 °F 30.2 °F 87% 29.36 in 1.6 mi SSE 6.9 mph - N/A   Mist
6:00 AM 34 °F - 32 °F 90% 29.42 in 2 mi SSE 6.7 mph - -   Mist
6:20 AM 33.8 °F 27.7 °F 32.0 °F 93% 29.36 in 2.2 mi SE 6.9 mph - N/A   Mist
6:50 AM 33.8 °F 28.6 °F 30.2 °F 87% 29.36 in 3.1 mi South 5.8 mph - N/A   Mist
7:00 AM 34 °F - 32 °F 87% 29.41 in 3 mi SSE 6.7 mph - -   Mist
7:20 AM 33.8 °F 28.6 °F 30.2 °F 87% 29.36 in 3.1 mi SSE 5.8 mph - N/A   Unknown
7:50 AM 35.6 °F 27.5 °F 30.2 °F 81% 29.33 in 3.7 mi SE 11.5 mph - N/A   Unknown
8:00 AM 36 °F - 32 °F 80% 29.38 in 4 mi SSE 6.7 mph - -   Mist
8:20 AM 37.4 °F 29.8 °F 30.2 °F 75% 29.33 in 5.0 mi SE 11.5 mph - N/A   Unknown
8:50 AM 37.4 °F 30.3 °F 32.0 °F 81% 29.33 in - SSE 10.4 mph - N/A   Clear
9:00 AM 39 °F - 32 °F 68% 29.37 in 6 mi SSE 8.9 mph - -   Scattered Clouds
9:20 AM 39.2 °F 32.0 °F 32.0 °F 75% 29.33 in - SSE 11.5 mph - N/A   Clear
9:50 AM 41.0 °F 34.7 °F 32.0 °F 70% 29.33 in - SSE 10.4 mph - N/A   Clear
10:20 AM 42.8 °F 37.5 °F 30.2 °F 61% 29.33 in - South 9.2 mph - N/A   Clear
10:50 AM 46.4 °F 40.7 °F 32.0 °F 57% 29.33 in - SSE 12.7 mph - N/A   Clear
11:00 AM 45 °F - 32 °F 48% 29.34 in 13 mi SSE 11.2 mph - -   Scattered Clouds
11:20 AM 48.2 °F - 28.4 °F 46% 29.33 in - SSE 12.7 mph - N/A   Clear
11:50 AM 48.2 °F - 30.2 °F 50% 29.33 in - SSE 12.7 mph - N/A   Clear
12:00 PM 49 °F - 30 °F 35% 29.32 in 19 mi South 13.4 mph - -   Clear
12:20 PM 48.2 °F - 28.4 °F 46% 29.33 in - SSW 17.3 mph - N/A   Clear
12:50 PM 48.2 °F - 30.2 °F 50% 29.33 in - SW 17.3 mph - N/A   Clear
1:00 PM 47 °F - 30 °F 39% 29.33 in 25 mi SW 11.2 mph - -   Scattered Clouds
1:20 PM 48.2 °F - 30.2 °F 50% 29.33 in - SSW 12.7 mph - N/A   Clear
1:50 PM 48.2 °F - 26.6 °F 43% 29.33 in - SW 11.5 mph - N/A   Clear
2:00 PM 49 °F - 29 °F 34% 29.33 in 22 mi SW 6.7 mph - -   Scattered Clouds
2:20 PM 48.2 °F - 28.4 °F 46% 29.33 in - SW 9.2 mph - N/A   Clear
2:50 PM 48.2 °F - 26.6 °F 43% 29.33 in - SSW 5.8 mph - N/A   Clear
3:00 PM 48 °F - 29 °F 35% 29.34 in 22 mi WSW 4.5 mph - -   Scattered Clouds
3:20 PM 46.4 °F 42.4 °F 26.6 °F 46% 29.33 in - SW 8.1 mph - N/A   Clear
3:50 PM 46.4 °F 41.9 °F 28.4 °F 50% 29.33 in - SW 9.2 mph - N/A   Clear
4:20 PM 44.6 °F 40.2 °F 28.4 °F 53% 29.36 in - SW 8.1 mph - N/A   Clear
4:50 PM 44.6 °F 41.4 °F 28.4 °F 53% 29.36 in - WSW 5.8 mph - N/A   Clear
5:00 PM 45 °F - 29 °F 41% 29.36 in 28 mi WSW 6.7 mph - -   Scattered Clouds
5:20 PM 42.8 °F 38.6 °F 28.4 °F 57% 29.36 in - SW 6.9 mph - N/A   Clear
5:50 PM 42.8 °F 40.1 °F 30.2 °F 61% 29.36 in - WSW 4.6 mph - N/A   Clear
6:00 PM 43 °F - 30 °F 49% 29.38 in 16 mi West 6.7 mph - -   Overcast
6:20 PM 41.0 °F 35.8 °F 30.2 °F 65% 29.36 in - WSW 8.1 mph - N/A   Clear
6:50 PM 41.0 °F - 30.2 °F 65% 29.39 in - Variable 2.3 mph 16.1 mph N/A   Clear
7:00 PM 40 °F - 32 °F 63% 29.41 in 9 mi West 4.5 mph - -   Clear
7:20 PM 41.0 °F 36.4 °F 30.2 °F 65% 29.39 in - Variable 6.9 mph - N/A   Clear
7:50 PM 37.4 °F 34.9 °F 30.2 °F 75% 29.39 in - Variable 3.5 mph - N/A   Clear
8:00 PM 38 °F - 31 °F 67% 29.43 in 7 mi ENE 2.2 mph - -   Overcast
8:20 PM 35.6 °F - 30.2 °F 81% 29.42 in - Variable 1.2 mph - N/A   Clear
8:50 PM 35.6 °F - 30.2 °F 81% 29.42 in - Variable 2.3 mph - N/A   Clear
9:00 PM 37 °F - 30 °F 67% 29.45 in 6 mi ENE 2.2 mph - -   Overcast
9:20 PM 35.6 °F - 30.2 °F 81% 29.42 in 5.6 mi ENE 2.3 mph - N/A   Unknown
9:50 PM 37.4 °F - 32.0 °F 81% 29.42 in 6.2 mi Calm Calm - N/A   Mostly Cloudy
10:20 PM 35.6 °F 32.8 °F 30.2 °F 81% 29.42 in 6.2 mi North 3.5 mph - N/A   Partly Cloudy
10:50 PM 35.6 °F - 30.2 °F 81% 29.42 in 5.0 mi Calm Calm - N/A   Unknown
11:00 PM 33 °F - 29 °F 82% 29.47 in 4 mi NW 2.2 mph - -   Mist
11:20 PM 33.8 °F - 30.2 °F 87% 29.42 in 4.3 mi Calm Calm - N/A   Mist
11:50 PM 37.4 °F - 32.0 °F 81% 29.42 in 5.0 mi NNE 1.2 mph - N/A   Unknown